Temperature
21 20 20 21 26 29 30 29 29 29 29 28 27 27 28 28 27 25 22 22 21 20 19 20 20 19 19 20 20 20 20 20 19 19 19 19 19 19 19 19 18 18 19 18 18 18 18 18 18
20 20 21 25 29 30 29 29 29 29 28 26 26 26 26 25 23 21 21 21 20 20 19 19 20 19 19 20 20 20 20 20 19 19 19 19 19 19 19 19 18 18 18 18 18 18 18 18 18
20 20 24 29 30 30 29 29 29 28 27 26 26 26 26 24 22 20 20 20 20 20 19 19 20 19 19 20 20 20 20 20 19 19 19 19 19 19 19 18 18 18 18 18 18 18 18 18 18
21 23 26 29 30 30 29 30 29 29 27 26 26 26 24 21 21 20 20 20 20 19 19 19 20 19 19 19 19 19 19 19 19 19 19 19 19 19 18 18 18 18 18 18 18 18 18 18 18
22 26 29 30 30 30 30 29 29 29 28 27 27 26 24 20 20 20 20 20 20 20 19 19 19 19 19 19 19 19 19 19 19 19 19 19 19 19 18 18 18 18 18 18 18 18 18 18 18
26 28 30 30 30 30 30 29 29 29 28 27 26 26 23 20 20 20 20 20 20 20 19 18 19 19 19 19 19 19 19 19 19 19 19 19 19 18 18 18 18 18 18 18 18 18 18 18 17
27 29 30 30 29 29 29 28 29 29 28 26 26 26 22 20 20 20 20 20 20 20 20 18 18 19 19 19 19 19 19 19 19 19 19 19 19 18 18 18 18 18 18 18 18 18 18 18 18
26 29 30 30 29 30 29 28 27 27 27 25 25 26 23 20 19 19 20 20 20 20 20 19 18 18 18 18 19 19 19 19 19 19 19 19 19 18 18 18 18 18 18 18 18 18 18 18 18
25 29 29 30 29 30 29 28 27 26 25 24 24 24 22 20 19 19 19 20 20 20 19 19 19 18 18 18 18 18 19 19 19 19 19 18 17 17 17 17 18 18 18 18 18 18 18 18 18
27 29 29 29 29 30 28 28 27 27 26 25 24 22 20 19 19 19 19 20 19 19 19 19 19 18 18 18 18 18 18 18 18 18 18 18 17 17 17 17 18 18 18 18 18 18 18 17 17
28 29 29 29 28 28 28 28 26 27 27 25 23 21 20 19 19 19 19 19 19 19 19 18 18 18 18 18 18 18 18 18 18 17 18 18 17 17 17 17 17 17 17 17 17 17 17 17 17
28 28 28 28 27 27 27 27 26 26 25 23 22 21 20 19 19 19 19 19 18 18 18 18 18 18 18 18 18 18 18 18 18 18 18 17 17 17 17 17 17 17 17 17 17 17 17 17 17
28 28 27 27 27 26 26 26 25 24 23 21 21 20 20 19 19 19 18 18 18 18 18 18 18 18 18 18 18 18 18 18 18 18 18 17 17 17 17 17 17 17 17 17 17 17 17 17 17
29 28 27 27 27 26 26 26 25 24 22 21 20 20 20 19 19 18 18 18 18 18 18 18 18 18 18 18 18 18 18 18 18 17 17 17 17 17 17 17 17 17 17 16 16 16 16 16 16
27 28 28 28 27 26 26 26 25 23 22 21 20 20 19 19 18 18 18 18 18 18 18 18 18 18 18 18 18 18 18 18 18 17 17 17 17 17 17 17 17 16 16 16 16 16 16 16 16
29 29 29 29 28 26 26 26 25 22 22 21 20 19 19 18 18 18 17 18 17 17 18 18 18 18 18 18 18 18 18 17 17 17 17 17 17 17 17 16 16 16 16 16 16 16 16 16 16
29 29 29 28 27 27 26 26 24 22 22 21 20 19 18 18 17 17 17 17 17 17 18 18 18 18 18 18 18 18 18 17 17 17 17 17 17 17 16 16 16 16 16 16 16 16 16 16 16
29 29 29 28 28 27 26 26 24 22 21 21 20 19 18 18 18 17 17 17 17 17 17 18 18 18 18 18 18 17 17 17 17 17 17 17 16 16 16 16 16 16 16 16 15 15 15 15 15
29 28 28 28 27 26 26 26 25 23 22 21 20 20 19 18 18 17 17 17 17 17 17 18 18 18 18 18 18 17 17 17 17 16 17 16 16 16 16 16 16 15 16 15 15 15 15 15 15
29 28 28 27 26 26 26 26 25 24 22 21 21 20 19 18 18 17 17 17 17 17 18 18 18 18 18 18 18 17 17 17 17 16 16 16 16 16 16 15 15 15 15 15 15 15 15 15 15
29 29 28 28 27 26 26 26 25 24 23 22 21 20 20 19 18 18 18 17 17 17 17 18 18 18 17 17 17 17 17 17 16 16 16 16 16 16 15 15 15 15 15 15 14 14 14 15 15
28 28 28 27 27 27 26 26 26 25 24 23 22 21 20 19 19 18 18 18 17 17 17 18 18 18 18 18 17 17 17 17 17 16 16 16 16 15 15 15 15 15 15 15 14 14 14 14 15
28 27 27 27 27 27 27 27 27 26 25 24 23 22 21 20 20 19 18 18 18 18 17 17 18 18 18 17 17 17 17 17 16 16 16 16 15 15 15 15 15 14 14 14 14 14 14 14 14
27 27 27 27 28 27 27 26 27 27 26 25 24 23 21 21 20 19 19 18 18 18 17 17 17 17 17 17 17 17 17 16 16 16 16 16 15 15 15 14 14 14 14 14 13 13 13 13 13
27 28 27 27 27 27 27 26 27 28 27 26 25 23 22 21 20 19 19 18 18 18 17 17 17 17 17 17 17 17 16 16 16 16 16 16 15 15 14 14 14 14 14 13 13 13 13 13 13
28 28 27 26 27 27 27 27 28 28 27 26 25 24 23 22 21 20 19 19 18 18 18 17 17 17 17 17 17 17 17 16 16 16 16 15 15 15 14 14 14 14 14 13 13 13 13 13 12
28 28 29 28 28 27 28 28 28 27 26 26 25 24 23 23 22 21 20 20 19 19 18 18 18 18 18 17 17 17 17 16 16 16 16 15 15 15 14 14 14 14 14 13 13 13 13 13 13
29 29 28 28 26 26 27 28 28 27 27 26 26 25 24 23 22 22 21 20 20 19 19 18 18 18 18 18 17 17 17 16 16 16 15 15 15 15 14 14 14 14 13 13 13 13 13 12 12
27 27 28 28 27 26 26 28 29 28 28 27 26 25 25 24 23 22 22 21 20 20 19 18 18 18 18 18 17 17 17 16 16 16 16 15 15 15 15 14 14 14 13 13 13 13 13 12 12
29 28 28 27 26 27 27 28 29 29 29 28 27 26 25 24 24 23 22 21 21 20 20 19 18 18 18 18 18 17 17 17 16 16 16 15 15 15 15 15 14 14 14 14 13 13 13 12 12
Wind_Speed
11 9 5 4 5 4 1 2 1 2 2 3 3 2 2 2 1 4 8 18 20 20 22 21 18 18 18 18 18 18 17 16 16 15 14 13 12 11 11 10 10 10 10 10 10 11 11 11 11
8 6 5 5 6 3 3 2 1 1 3 5 4 3 2 3 4 7 11 18 21 21 22 21 20 18 18 18 18 17 17 16 15 14 13 12 11 11 10 10 9 10 10 10 10 10 10 10 10
7 6 5 5 4 2 2 2 1 2 5 5 3 2 1 3 6 8 13 21 21 20 21 21 21 19 18 18 17 17 16 15 14 14 13 12 11 10 9 9 9 9 10 10 10 10 10 10 10
5 5 5 6 3 2 2 1 0 4 5 5 4 4 3 4 4 9 18 21 21 19 20 22 20 19 18 17 17 16 16 15 14 13 12 11 10 10 9 9 9 9 9 9 9 9 9 8 8
6 5 7 5 2 2 1 2 2 4 4 5 5 4 4 3 6 14 20 21 21 20 19 22 20 19 18 17 17 16 15 14 13 12 11 10 10 9 9 8 8 8 8 8 8 8 8 7 7
5 5 7 3 3 2 2 2 2 3 3 4 4 4 4 5 10 16 19 20 20 19 19 22 20 19 18 17 16 16 15 14 13 12 11 9 9 9 8 8 8 7 7 7 7 7 7 6 6
6 5 4 2 1 2 2 1 1 1 4 3 3 4 5 8 12 16 17 18 18 18 18 19 20 18 17 16 16 15 14 13 12 11 10 9 8 7 6 7 7 6 6 6 6 6 6 5 5
5 4 4 2 2 1 2 0 1 2 2 2 3 4 6 11 13 15 16 16 17 17 17 17 18 18 17 16 15 14 13 12 11 10 9 8 8 7 6 7 7 5 5 5 4 4 4 4 4
4 5 2 1 2 1 1 2 1 1 2 3 2 0 7 15 16 16 16 16 16 15 14 15 16 15 15 14 15 14 13 12 12 11 10 9 8 8 8 6 7 5 5 4 3 3 3 4 5
5 4 2 3 4 4 3 4 2 4 5 5 4 5 11 16 16 17 17 18 17 16 15 13 13 13 13 11 13 11 11 12 10 9 9 7 4 3 3 9 5 4 3 4 4 3 5 7 5
4 4 4 3 4 6 5 4 3 6 6 3 4 8 13 15 16 16 16 16 17 16 14 13 12 12 11 8 10 8 8 9 8 8 7 5 4 4 3 4 6 5 5 4 5 5 4 3 2
5 5 5 5 4 5 5 3 3 4 3 1 3 9 13 14 15 15 15 15 15 15 14 12 11 10 9 8 8 7 7 7 7 7 6 5 3 2 2 2 2 3 3 2 3 2 1 2 2
7 5 3 4 4 4 4 3 3 2 1 2 5 9 12 12 12 12 12 12 13 13 13 12 11 10 9 7 6 7 6 6 6 6 5 4 3 3 3 2 1 2 2 3 3 2 2 2 3
4 5 5 5 4 3 3 2 2 1 2 5 6 8 9 11 12 11 11 11 12 13 13 12 12 11 10 8 6 5 6 5 5 5 4 3 3 2 2 3 2 1 2 2 2 2 2 2 2
6 7 6 4 3 2 4 4 2 2 3 5 6 6 7 8 10 11 11 11 11 12 12 12 11 11 10 9 8 6 6 6 5 4 4 3 2 2 2 2 2 1 2 2 2 2 3 3 3
7 8 5 2 2 2 6 4 3 3 4 5 6 7 7 7 9 10 10 10 11 11 12 11 10 11 10 8 7 6 6 6 5 4 4 4 3 3 2 2 2 2 2 2 2 2 2 2 3
7 6 6 1 2 3 5 4 2 3 4 5 6 7 8 8 9 9 10 11 11 11 11 11 10 11 10 9 7 6 6 5 5 5 5 5 4 4 3 2 2 2 2 1 2 1 2 2 2
7 8 7 5 1 4 5 3 3 4 4 5 7 8 8 9 9 9 10 10 10 11 10 10 10 10 10 8 7 6 5 5 5 5 5 5 5 4 3 3 2 2 2 1 0 0 1 3 3
8 9 8 4 1 4 5 3 3 5 5 6 7 8 8 8 8 9 10 11 11 11 11 10 10 10 9 7 7 7 6 6 5 5 6 5 5 5 3 2 3 2 1 1 1 2 2 3 3
8 8 6 2 1 4 4 4 4 7 6 6 7 8 8 9 10 10 11 11 11 11 11 11 11 10 9 7 6 5 5 5 5 5 5 5 5 5 5 2 2 2 1 2 1 2 3 3 2
8 8 7 5 3 5 5 4 6 7 7 8 8 9 10 11 12 13 13 13 12 12 11 11 11 11 9 9 7 6 6 5 5 6 5 5 5 5 3 3 2 1 3 1 1 2 3 3 3
7 4 5 4 6 3 4 4 4 8 9 9 9 11 11 12 12 12 12 12 12 12 11 10 10 10 9 9 8 9 7 6 6 5 5 6 5 4 4 3 2 2 2 0 3 1 3 4 4
3 1 4 5 6 5 3 5 2 7 8 11 11 12 13 13 13 13 13 13 12 12 12 11 10 10 9 8 8 8 7 5 5 5 6 5 5 5 4 3 2 2 2 1 2 1 3 3 4
4 4 4 6 7 4 2 5 1 4 6 10 13 14 14 14 14 14 13 13 13 13 12 12 11 10 10 10 9 8 7 7 7 7 7 6 5 5 5 4 3 3 2 2 2 2 3 3 3
7 7 5 4 4 2 1 4 2 2 5 8 13 16 16 15 15 15 15 15 14 14 14 13 13 12 11 11 9 9 8 8 8 7 7 6 5 5 5 4 4 3 2 2 2 3 3 3 3
8 8 6 6 6 4 2 3 2 3 5 8 12 15 17 16 16 16 16 16 15 16 15 14 14 13 12 11 10 9 9 8 7 7 6 6 5 4 5 5 5 4 4 4 3 4 3 3 4
6 7 6 8 7 6 2 1 2 5 7 9 12 15 17 18 17 17 16 16 16 16 16 15 14 13 13 12 11 10 10 8 6 7 7 6 5 5 6 6 5 5 5 4 4 3 3 4 5
7 5 4 6 6 6 4 3 0 4 8 11 13 15 17 18 18 18 17 17 16 16 15 15 14 14 13 13 12 10 10 9 8 8 7 6 6 5 6 6 6 6 5 5 5 5 4 5 5
7 7 7 7 7 8 6 2 3 1 5 10 13 15 17 18 18 18 17 17 16 16 16 15 15 14 14 13 12 11 11 11 10 9 9 8 8 7 7 7 7 6 6 6 6 6 5 6 6
10 10 9 8 7 7 8 3 5 1 3 7 10 13 15 16 17 17 17 17 16 17 16 16 16 15 15 14 13 13 12 11 11 10 10 9 9 9 8 8 7 7 7 7 7 7 7 7 8
Wind_Direction
180 191 219 240 240 230 142 105 87 122 132 133 147 166 166 132 124 99 128 152 151 150 146 151 149 147 143 140 138 137 136 136 135 133 130 127 125 121 117 113 109 103 100 97 96 97 97 98 100
182 195 228 242 255 221 131 122 131 74 111 135 146 152 144 105 71 112 142 151 152 150 149 154 148 148 145 141 139 137 136 135 134 132 129 126 124 120 117 113 109 105 102 99 97 98 98 99 99
191 226 254 248 251 285 83 88 53 126 151 165 156 141 95 101 122 136 148 153 153 149 149 147 150 150 148 144 141 139 137 136 135 134 132 129 126 122 117 113 109 105 102 100 99 98 97 99 100
210 227 237 247 218 65 2 357 233 175 169 183 175 136 108 72 131 145 148 155 152 151 152 148 153 152 151 147 145 142 140 139 139 137 135 133 130 123 116 111 107 105 103 100 99 99 99 99 101
238 251 236 222 173 82 20 352 216 198 173 182 189 145 112 88 129 144 152 157 155 155 152 150 156 155 154 152 149 147 145 144 142 140 138 135 129 122 117 114 110 108 106 103 101 100 100 99 99
233 245 242 215 131 105 64 46 203 200 176 168 180 153 101 116 140 149 155 160 159 156 154 150 157 157 157 156 154 151 149 148 146 142 141 139 133 128 125 121 116 112 110 108 108 108 105 100 97
265 258 257 255 182 156 60 23 250 220 187 171 178 158 125 139 145 152 156 161 161 159 155 155 161 161 160 159 157 154 152 151 148 146 145 143 139 135 133 126 123 121 118 117 119 119 115 110 103
280 263 227 216 240 137 85 60 4 265 160 129 202 189 148 151 151 153 157 162 164 163 160 159 163 162 165 163 161 158 156 154 150 149 150 148 150 150 149 159 136 133 128 128 127 129 129 126 118
260 251 235 277 292 359 57 273 155 234 179 178 199 47 127 147 152 157 161 165 166 166 164 166 163 163 168 166 159 162 159 156 158 161 159 175 178 165 171 130 125 147 144 144 141 137 150 176 162
243 265 17 351 317 314 315 292 278 231 215 201 175 128 138 154 159 165 170 171 169 169 171 170 166 163 170 167 159 170 170 162 177 163 169 181 158 164 149 121 141 154 154 166 158 160 193 230 199
243 283 332 313 313 307 289 278 268 259 243 225 194 161 159 164 169 173 176 175 171 171 172 170 167 166 172 162 164 171 169 160 168 161 167 161 170 173 169 156 164 174 186 197 169 202 223 235 257
251 272 286 295 309 294 294 282 262 268 292 341 176 166 166 173 175 177 177 175 171 172 172 170 167 168 169 165 167 171 170 166 162 157 174 167 176 179 158 182 166 189 187 187 216 209 207 252 246
244 271 277 272 276 289 279 270 270 274 267 140 149 165 171 171 171 171 171 169 169 171 170 168 168 166 165 163 175 171 168 165 153 154 166 175 182 186 169 154 184 224 201 197 208 211 199 218 233
275 274 269 264 262 241 243 238 225 168 145 151 155 166 172 171 167 165 168 170 171 170 168 165 169 167 164 164 166 165 167 158 153 152 150 179 187 168 176 182 183 206 222 227 213 203 219 227 238
257 260 247 221 220 215 247 235 185 141 150 159 164 170 167 164 165 170 173 168 168 167 165 166 169 167 168 167 170 167 162 156 147 141 143 175 184 156 181 165 179 173 192 183 204 209 214 222 228
240 249 260 164 227 216 256 291 110 149 172 170 167 167 165 166 170 171 172 166 166 166 165 167 172 166 166 166 166 164 157 148 148 154 160 167 162 164 191 172 145 149 198 200 185 223 223 236 254
227 283 316 315 206 240 258 296 138 171 187 177 169 168 172 172 176 170 168 167 166 167 166 167 170 165 164 163 165 160 149 149 160 166 161 155 160 165 188 156 112 190 195 211 241 169 269 259 276
315 316 314 318 220 253 266 278 166 172 189 183 174 173 178 180 181 170 162 162 163 165 165 166 168 163 163 161 156 154 153 159 166 161 151 158 162 167 179 165 151 212 191 187 238 274 280 288 285
298 299 306 324 303 263 274 269 187 173 183 181 180 181 183 179 173 168 165 164 164 166 166 167 168 165 167 165 166 163 163 164 163 161 154 166 164 160 189 181 154 218 189 245 244 268 244 268 301
276 285 295 301 234 268 278 263 187 174 182 183 187 184 181 178 171 170 170 170 170 170 170 169 170 170 172 164 158 159 154 164 160 155 152 169 169 176 184 189 199 190 194 202 249 272 294 298 295
276 290 305 302 271 237 268 231 179 177 182 185 189 187 181 178 174 171 173 174 172 173 179 175 169 170 172 164 160 156 151 165 166 168 167 168 172 178 184 184 232 206 243 207 249 264 274 294 290
280 308 285 267 267 286 273 304 163 179 185 189 187 182 178 176 175 173 177 178 180 179 177 173 170 170 170 170 174 175 179 178 175 181 166 165 175 179 179 190 200 234 262 232 249 260 285 284 286
292 275 251 254 269 279 246 288 127 170 193 191 187 182 178 176 175 178 181 182 182 180 178 176 171 170 169 174 176 183 186 180 175 177 161 178 171 180 185 189 193 209 241 266 318 295 289 284 295
169 198 220 234 252 273 325 287 333 168 197 186 183 181 179 176 176 178 179 179 181 180 177 175 174 174 174 180 182 191 186 185 178 183 176 189 179 181 180 185 191 210 218 194 228 257 248 294 308
214 249 262 251 254 328 54 279 346 130 182 181 178 178 179 179 178 178 179 179 178 178 177 177 178 177 178 183 187 191 191 188 187 193 189 202 190 186 177 187 190 200 197 210 230 237 276 262 266
227 258 284 304 315 324 189 285 33 129 167 175 174 176 178 181 181 180 180 180 180 180 179 180 181 181 181 185 188 191 193 196 191 195 198 196 202 188 167 183 192 200 205 212 218 244 235 243 252
227 245 285 284 285 287 294 275 187 165 174 179 177 177 181 183 183 184 184 184 184 184 185 186 185 185 186 187 186 189 193 199 188 179 197 193 188 180 180 190 195 197 201 214 226 241 241 237 248
260 253 240 269 288 289 284 272 315 170 182 183 184 184 184 185 186 187 186 187 188 189 188 189 189 191 190 188 190 189 191 191 189 192 189 188 186 187 189 195 198 200 204 211 230 235 224 239 243
203 220 241 263 278 286 295 343 60 175 192 189 188 188 187 187 188 187 187 188 188 190 189 189 191 192 192 193 192 190 190 190 191 193 191 189 191 189 197 200 203 208 213 217 225 245 237 240 246
239 241 234 251 254 256 281 299 96 148 192 191 190 187 188 189 189 188 188 188 190 192 192 192 193 194 194 192 191 192 192 192 195 195 194 192 192 196 199 203 210 217 220 222 229 241 244 245 248
Height
1518 1518 1520 1522 1514 1503 1502 1501 1499 1500 1501 1505 1507 1507 1506 1508 1511 1520 1522 1524 1528 1532 1534 1537 1541 1544 1547 1550 1552 1554 1556 1558 1559 1560 1561 1562 1564 1564 1565 1566 1567 1567 1567 1568 1568 1569 1569 1569 1570
1520 1520 1522 1518 1506 1505 1505 1500 1500 1500 1503 1507 1509 1509 1510 1512 1516 1518 1520 1524 1528 1532 1535 1538 1542 1546 1549 1551 1554 1556 1557 1559 1560 1562 1563 1564 1565 1566 1567 1567 1568 1569 1569 1569 1570 1571 1571 1571 1572
1521 1521 1520 1509 1502 1502 1503 1499 1500 1502 1506 1507 1509 1510 1511 1514 1517 1518 1520 1524 1529 1533 1536 1539 1543 1547 1550 1553 1555 1557 1559 1560 1562 1563 1564 1565 1566 1567 1568 1569 1570 1570 1571 1571 1572 1572 1573 1573 1574
1522 1522 1517 1506 1501 1500 1500 1498 1500 1502 1505 1508 1509 1511 1514 1517 1518 1519 1521 1525 1530 1534 1538 1540 1544 1548 1551 1554 1556 1558 1560 1561 1563 1564 1565 1566 1568 1569 1570 1571 1571 1572 1572 1573 1573 1574 1574 1575 1576
1522 1517 1506 1501 1499 1499 1499 1500 1501 1500 1504 1506 1508 1510 1514 1517 1517 1519 1522 1527 1531 1536 1540 1541 1545 1549 1552 1555 1557 1559 1561 1562 1564 1565 1567 1568 1569 1570 1571 1572 1572 1573 1574 1574 1575 1575 1576 1577 1577
1519 1511 1503 1500 1500 1500 1500 1502 1501 1501 1504 1507 1509 1510 1516 1518 1519 1521 1524 1529 1533 1537 1541 1543 1546 1550 1553 1556 1558 1560 1561 1563 1565 1566 1567 1569 1570 1571 1572 1573 1574 1574 1575 1576 1576 1577 1577 1578 1579
1516 1506 1501 1500 1502 1500 1501 1503 1502 1502 1505 1508 1510 1511 1516 1519 1521 1523 1526 1531 1535 1539 1542 1544 1547 1550 1553 1556 1559 1561 1562 1564 1565 1567 1568 1570 1571 1572 1573 1574 1575 1575 1576 1577 1577 1578 1578 1579 1580
1516 1507 1501 1500 1502 1500 1502 1504 1505 1505 1506 1511 1512 1511 1515 1519 1521 1524 1528 1532 1535 1539 1543 1545 1549 1551 1554 1556 1559 1561 1563 1564 1566 1568 1569 1570 1572 1573 1574 1575 1576 1576 1577 1577 1578 1579 1579 1580 1581
1517 1508 1501 1500 1501 1499 1502 1503 1506 1508 1509 1511 1512 1513 1515 1518 1520 1524 1528 1532 1535 1539 1542 1546 1549 1552 1555 1558 1559 1561 1563 1564 1566 1568 1569 1571 1574 1575 1575 1576 1576 1577 1577 1578 1579 1580 1580 1581 1581
1514 1504 1501 1502 1501 1500 1503 1504 1505 1506 1506 1509 1512 1514 1515 1517 1520 1523 1526 1530 1534 1538 1542 1545 1549 1551 1555 1558 1559 1562 1564 1565 1567 1569 1570 1572 1574 1575 1576 1576 1576 1577 1578 1579 1579 1580 1580 1582 1583
1510 1505 1503 1503 1504 1504 1503 1503 1505 1504 1503 1507 1510 1513 1515 1518 1520 1523 1526 1530 1533 1537 1541 1545 1548 1551 1555 1557 1560 1562 1564 1565 1567 1569 1570 1572 1573 1575 1576 1577 1577 1577 1578 1579 1580 1580 1581 1582 1583
1508 1505 1506 1505 1505 1505 1503 1504 1505 1505 1507 1509 1510 1512 1514 1516 1519 1521 1525 1529 1533 1536 1540 1543 1547 1550 1553 1557 1560 1562 1564 1565 1568 1568 1570 1572 1573 1574 1575 1576 1577 1577 1578 1578 1579 1580 1580 1581 1581
1506 1504 1505 1505 1505 1505 1505 1504 1505 1506 1508 1509 1510 1512 1513 1515 1518 1521 1525 1528 1531 1535 1539 1542 1546 1549 1552 1555 1558 1561 1563 1565 1567 1568 1569 1571 1573 1574 1575 1575 1575 1577 1577 1578 1578 1579 1579 1580 1580
1503 1503 1503 1503 1503 1504 1503 1503 1505 1506 1508 1509 1510 1512 1513 1515 1517 1520 1523 1526 1530 1533 1537 1541 1545 1548 1551 1554 1557 1560 1563 1564 1566 1568 1569 1570 1572 1573 1574 1574 1574 1576 1576 1577 1577 1578 1578 1579 1579
1504 1501 1498 1498 1500 1502 1502 1500 1503 1506 1508 1509 1510 1511 1513 1515 1517 1520 1522 1525 1529 1533 1536 1540 1544 1547 1551 1554 1557 1559 1562 1563 1565 1567 1568 1569 1571 1572 1573 1574 1574 1575 1575 1575 1576 1576 1577 1577 1578
1499 1496 1493 1494 1498 1500 1502 1499 1502 1506 1507 1508 1509 1511 1513 1515 1517 1520 1522 1525 1529 1532 1536 1539 1543 1547 1550 1553 1556 1559 1561 1562 1564 1566 1568 1569 1570 1571 1572 1573 1574 1573 1574 1575 1575 1576 1576 1577 1577
1492 1492 1492 1492 1495 1497 1497 1498 1502 1505 1506 1507 1509 1511 1513 1514 1517 1519 1522 1525 1529 1532 1535 1538 1542 1546 1549 1552 1555 1558 1559 1561 1564 1566 1567 1568 1569 1570 1572 1573 1572 1572 1574 1574 1575 1575 1575 1576 1575
1494 1490 1491 1491 1492 1495 1495 1495 1500 1504 1505 1506 1508 1510 1512 1514 1516 1518 1521 1524 1528 1531 1535 1538 1541 1545 1548 1551 1554 1556 1559 1561 1563 1565 1566 1567 1569 1569 1571 1572 1571 1572 1573 1573 1573 1573 1573 1574 1574
1491 1492 1492 1490 1491 1494 1493 1494 1497 1502 1504 1505 1507 1509 1511 1513 1516 1518 1521 1524 1528 1531 1534 1537 1541 1544 1547 1550 1553 1556 1558 1560 1562 1564 1565 1567 1568 1568 1569 1572 1570 1571 1572 1572 1573 1573 1573 1573 1573
1490 1491 1489 1490 1492 1492 1492 1492 1493 1499 1502 1503 1505 1507 1509 1512 1515 1517 1520 1523 1527 1530 1533 1536 1540 1543 1546 1549 1552 1555 1557 1559 1562 1563 1564 1565 1566 1567 1569 1569 1571 1571 1571 1571 1571 1571 1572 1572 1572
1487 1488 1487 1489 1490 1490 1491 1490 1492 1496 1500 1502 1504 1506 1508 1510 1513 1516 1519 1522 1525 1529 1532 1536 1539 1541 1545 1548 1551 1553 1556 1558 1561 1562 1563 1564 1565 1566 1567 1568 1569 1569 1570 1571 1570 1570 1570 1571 1571
1487 1484 1486 1489 1491 1487 1491 1492 1487 1490 1495 1498 1501 1504 1506 1509 1512 1515 1518 1521 1524 1527 1531 1534 1537 1540 1543 1546 1550 1553 1555 1558 1560 1561 1562 1563 1564 1565 1566 1566 1567 1567 1569 1568 1569 1569 1569 1569 1570
1484 1485 1486 1486 1487 1487 1486 1489 1483 1485 1490 1492 1496 1500 1504 1507 1510 1513 1517 1520 1523 1527 1530 1533 1536 1539 1542 1545 1548 1551 1554 1556 1558 1560 1560 1561 1562 1563 1564 1565 1565 1565 1567 1566 1566 1566 1567 1568 1568
1485 1486 1486 1485 1482 1492 1486 1489 1485 1479 1482 1485 1491 1497 1501 1505 1509 1512 1516 1519 1522 1525 1529 1532 1535 1538 1541 1544 1547 1549 1552 1554 1556 1557 1559 1560 1561 1562 1562 1563 1563 1564 1565 1564 1564 1565 1565 1565 1565
1484 1486 1492 1493 1492 1489 1482 1486 1481 1473 1476 1480 1486 1493 1498 1503 1506 1510 1514 1517 1520 1523 1527 1530 1533 1536 1539 1542 1545 1547 1550 1552 1553 1555 1557 1559 1560 1560 1560 1561 1561 1562 1562 1562 1562 1563 1563 1563 1563
1479 1480 1494 1503 1497 1485 1482 1483 1474 1472 1476 1480 1484 1490 1495 1500 1503 1507 1511 1515 1518 1522 1525 1528 1531 1535 1537 1540 1543 1545 1548 1550 1552 1553 1555 1556 1558 1559 1558 1558 1559 1560 1560 1561 1560 1562 1561 1561 1561
1477 1477 1471 1481 1483 1487 1479 1475 1469 1471 1475 1479 1482 1487 1491 1496 1500 1504 1509 1512 1516 1520 1523 1526 1529 1532 1535 1538 1540 1543 1545 1547 1549 1550 1552 1554 1554 1555 1555 1556 1557 1558 1558 1558 1558 1560 1559 1559 1559
1472 1470 1478 1481 1496 1495 1483 1476 1472 1470 1472 1475 1479 1483 1488 1493 1497 1502 1506 1510 1514 1517 1521 1524 1527 1529 1532 1535 1538 1541 1542 1544 1546 1548 1549 1550 1551 1552 1553 1554 1555 1556 1556 1556 1556 1557 1557 1557 1557
1477 1477 1475 1474 1479 1490 1491 1479 1461 1465 1467 1470 1475 1480 1484 1489 1493 1498 1503 1507 1511 1515 1518 1521 1524 1527 1530 1533 1535 1538 1540 1542 1543 1545 1546 1547 1549 1549 1551 1552 1553 1553 1554 1554 1554 1555 1555 1554 1555
1465 1467 1471 1482 1482 1480 1481 1475 1459 1462 1464 1468 1472 1477 1481 1486 1490 1495 1499 1504 1508 1512 1515 1518 1521 1524 1527 1530 1532 1535 1537 1539 1541 1543 1544 1545 1546 1547 1548 1549 1550 1551 1552 1552 1551 1552 1552 1552 1552